Home > Time Zones > World Clock > Weather > Iran > Tehran > Past weeks

Flag for Iran Weather past 2 weeks in Tehran, Iran

Now
88 °F

Sunny.


Feels Like: 84 °F
Forecast: 58 / 85 °F
Wind: 7 mph from South

Location: Tehran-Mehrabad

Current Time: Sep 22, 2014 at 12:49:41 PM

Latest Report: Sep 22, 2014 at 12:30 PM


Visibility: 10 mi

Pressure: 29.92 "Hg

Humidity: 10%

Dew point: 25 °F

Location of TehranLocation

Historic Weather in Tehran — Graph

°F

Tehran temperature yesterday

Maximum temperature yesterday: 91 °F (at 3:00 PM)
Minimum temperature yesterday: 75 °F (at 3:30 AM)
Average temperature yesterday: 82 °F

Past Weeks' High & Low Weather Summary

 TemperatureHumidityPressure
High133 °F (Sep 9, 5:00 AM)53% (Sep 18, 5:00 AM)30.12 "Hg (Sep 18, 5:00 AM)
Low68 °F (Sep 18, 5:00 AM)5% (Sep 9, 5:00 AM)29.77 "Hg (Sep 16, 6:30 PM)
Average84 °F17%29.94 "Hg
* Reported Sep 7 12:30 PM — Sep 22 11:30 AM, Tehran, Weather by CustomWeather, © 2014

Note: Actual official high and low records may vary slightly from our data, if they occured in-between our weather recording intervals... More about our weather records

Advertising

Tehran weather history for previous 24 hours

 ConditionsComfort  
Time TempWeatherWind HumidityBarometerVisibility
11:30 AM
Sep 22
86 °FSunny.9 mph11%29.92 "Hg10 mi
11:00 AM86 °FSunny.14 mph10%29.92 "Hg10 mi
10:30 AM86 °FSunny.9 mph11%29.92 "Hg5 mi
10:00 AM84 °FSunny.7 mph16%29.95 "Hg5 mi
9:30 AM82 °FSunny.7 mph19%29.95 "Hg5 mi
9:00 AM84 °FSunny.7 mph14%29.92 "Hg5 mi
8:30 AM82 °FSunny.5 mph15%29.92 "Hg5 mi
8:00 AM81 °FSunny.5 mph17%29.92 "Hg5 mi
7:30 AM73 °FSunny.7 mph17%29.89 "Hg10 mi
7:00 AM72 °FSunny.7 mph19%29.89 "Hg10 mi
6:30 AM72 °FSunny.5 mph20%29.89 "Hg10 mi
6:00 AM72 °FClear.5 mph22%29.89 "Hg10 mi
5:30 AM73 °FClear.7 mph16%29.89 "Hg10 mi
5:00 AM72 °FClear.7 mph19%29.86 "Hg10 mi
4:30 AM72 °FClear.No wind20%29.86 "Hg10 mi
3:30 AM73 °FClear.5 mph20%29.86 "Hg10 mi
3:00 AM75 °FClear.5 mph19%29.86 "Hg10 mi
2:30 AM77 °FClear.5 mph17%29.86 "Hg10 mi
2:00 AM77 °FClear.7 mph22%29.86 "Hg10 mi
1:30 AM75 °FClear.5 mph25%29.86 "Hg10 mi
1:00 AM75 °FClear.5 mph25%29.86 "Hg10 mi
12:30 AM77 °FClear.5 mph24%29.86 "Hg10 mi
12:00 AM77 °FClear.5 mph22%29.86 "Hg10 mi
11:30 PM
Sep 21
79 °FClear.5 mph20%29.86 "Hg10 mi
11:00 PM79 °FClear.5 mph16%29.86 "Hg10 mi
11:30 PM79 °FClear.5 mph17%29.86 "Hg10 mi
11:00 PM79 °FClear.5 mph23%29.86 "Hg10 mi
10:30 PM79 °FClear.No wind23%29.86 "Hg10 mi
10:00 PM79 °FClear.5 mph24%29.86 "Hg10 mi
9:30 PM79 °FClear.5 mph21%29.86 "Hg10 mi
9:00 PM81 °FClear.5 mph20%29.83 "Hg10 mi
8:30 PM82 °FSunny.No wind19%29.83 "Hg10 mi
8:00 PM82 °FSunny.5 mph16%29.83 "Hg10 mi
7:30 PM86 °FSunny.5 mph11%29.83 "Hg10 mi
6:30 PM90 °FSunny.7 mph9%29.83 "Hg10 mi
6:00 PM90 °FSunny.7 mph9%29.83 "Hg10 mi
5:30 PM90 °FSunny.9 mph9%29.83 "Hg10 mi
5:00 PM91 °FSunny.7 mph8%29.83 "Hg10 mi
4:30 PM91 °FSunny.14 mph8%29.83 "Hg10 mi
4:00 PM91 °FSunny.14 mph8%29.86 "Hg10 mi
3:30 PM91 °FSunny.9 mph8%29.86 "Hg10 mi
3:00 PM91 °FSunny.9 mph9%29.86 "Hg10 mi
2:30 PM90 °FSunny.7 mph9%29.89 "Hg10 mi
2:00 PM90 °FPassing clouds.5 mph11%29.89 "HgN/A
1:30 PM90 °FPassing clouds.7 mph9%29.89 "HgN/A
1:00 PM88 °FSunny.7 mph11%29.92 "Hg10 mi
Weather by CustomWeather, © 2014

See weather overviewHow to use our weather pages